Regional Weather Roundup
Issued by NWS Newport/Morehead, NC

Home | Current Version | Previous Version | Text Only | Print | Product List | Glossary On
Versions: 1 2 3 4 5 6 7 8 9 10 11 12 13 14 15 16 17 18 19 20 21 22 23 24 25 26 27 28 29 30 31 32 33 34 35 36 37 38 39 40 41 42 43 44 45 46 47 48 49 50
000
ASUS42 KMHX 240625
RWRMHX
WEATHER ROUNDUP FOR EASTERN NORTH CAROLINA
NATIONAL WEATHER SERVICE NEWPORT/MOREHEAD CITY NC
200 AM EDT MON JUL 24 2017

NOTE: "FAIR" INDICATES FEW OR NO CLOUDS BELOW 12,000 FEET
WITH NO SIGNIFICANT WEATHER AND/OR OBSTRUCTIONS TO VISIBILITY

NCZ015>017-031-032-045>047-102-103-240700-
NORTH COAST

CITY           SKY/WX    TMP DP  RH WIND       PRES   REMARKS
EDENTON        CLOUDY    76  71  85 CALM      29.83R
ELIZABETH CITY CLOUDY    74  74 100 W5        29.81R
KITTY HAWK     CLOUDY    76  70  81 SW3       29.79F
MANTEO         CLOUDY    77  70  80 SW20      29.80F

$$

NCZ045>047-081-094-103-104-240700-
CENTRAL COAST

CITY           SKY/WX    TMP DP  RH WIND       PRES   REMARKS
FRISCO         CLOUDY    76  70  82 SW9       29.87F

$$

NCZ095-097-098-100-101-240700-
SOUTHERN COAST

CITY           SKY/WX    TMP DP  RH WIND       PRES   REMARKS
BEAUFORT       CLOUDY    82  79  90 SW15      29.88F
CEDAR ISLAND   NOT AVBL
JACKSONVILLE   CLOUDY    79  78  97 S6        29.87F
PINEY ISLAND   CLOUDY   N/A N/A N/A S8        29.87F
WILMINGTON     CLOUDY    80  76  87 SW10      29.88F


$$

NCZ011>013-027>030-043-044-078>080-089-090>093-098-240700-
COASTAL PLAIN

CITY           SKY/WX    TMP DP  RH WIND       PRES   REMARKS
AHOSKIE          N/A     69  69  99 CALM      29.85S
CLINTON        CLEAR     73  73 100 CALM      29.88S
ELIZABETHTOWN  NOT AVBL
GOLDSBORO      MOCLDY    75  75 100 SW6       29.85F FOG
GREENVILLE     MOCLDY    72  72 100 CALM      29.88S
HAVELOCK       MOCLDY    80  76  87 S10       29.88S
KENANSVILLE    PTCLDY    73  72  94 CALM      29.87F FOG
KINSTON        CLOUDY    75  72  88 CALM      29.86F
NEW BERN       CLOUDY    76  73  91 S6        29.88F
RICHLANDS      CLOUDY    78  76  93 S7        29.88S
ROCKY MOUNT    PTCLDY    72  72 100 S3        29.86F
WASHINGTON     CLOUDY    74  71  89 W6        29.85R
WHITEVILLE     MOCLDY    74  73  95 CALM      29.87F

$$

AMZ130-135-150-152-154-156-158-170-250-252-270-ANZ085-086-088-633-658-670-240700-
MARINE OBSERVATIONS

STATION/POSITION TIME  TEMP    WIND        PRES    WAVE   SWELL
                       AIR SEA DIR/SP/G            HT/PER HT/PER
                 (UTC) (F)     (DEG/KT/KT) (MB)    (FT/S) (FT/S)
CHESAPEAKE LIGHT NOT AVBL
64 E VA BEACH    0550   78 79  210/ 16/ 17 1008.3    5/ 5   2/ 8
DUCK             0600   78 60  210/  8/ 11 1008.5
2 E DUCK         0600      64                N/A     2/ 9
OREGON INLET     0600   81 84  200/ 18/ 20 1009.6
13E OREGON INLT  0548      75                N/A     4/ 7   3/ 7
HATTERAS CG      0600   76 78  210/ 10/ 14 1011.2
DIAMOND BUOY     0550   82 84  240/ 14/ 17 1011.7    7/ 7   5/ 7
CAPE LOOKOUT     0600   81     220/ 11/ 13 1011.8
BEAUFORT LAB     0600   81 80  210/ 11/ 15 1011.2
30 SE NEW RVR IN 0608   81 82  230/ 19/ 25 1012.2
30 SE NEW RVR IN 0543      82                N/A     7/ 7   2/11
27 SE WRIGHTSVLE 0608   82 83  210/ 19/ 25 1011.8
5 SE WRIGHTSVLE  0608   81 80  220/ 14/ 23 1011.9
225 S CAPE HAT   0550   83 83  200/ 16/ 17 1016.6    5/ 6   2/ 9
41 SE CHARLESTON 0610   82 83  230/ 17/ 21 1013.0

$$



USA.gov is the U.S. government's official web portal to all federal, state and local government web resources and services.